Time,TemperatureF,DewpointF,PressureIn,WindDirection,WindDirectionDegrees,WindSpeedMPH,WindSpeedGustMPH,Humidity,HourlyPrecipIn,Conditions,Clouds,dailyrainin,SoftwareType,DateUTC
2013-07-09 00:01:00,73.3,71.2,29.96,WSW,254,0.0,0.0,93,0.00,,---,0.00,VWS V14.00,2013-07-09 04:01:00,
2013-07-09 00:03:00,73.3,71.2,29.96,WSW,254,0.0,0.0,93,0.00,,---,0.00,VWS V14.00,2013-07-09 04:03:00,
2013-07-09 00:04:00,73.3,71.2,29.96,WSW,254,0.0,0.0,93,0.00,,---,0.00,VWS V14.00,2013-07-09 04:04:00,
2013-07-09 00:09:00,73.3,71.2,29.95,WSW,254,0.0,0.0,93,0.00,,---,0.00,VWS V14.00,2013-07-09 04:09:00,
2013-07-09 00:14:00,73.3,71.2,29.96,WSW,254,0.0,0.0,93,0.00,,---,0.00,VWS V14.00,2013-07-09 04:14:00,
2013-07-09 00:19:00,73.2,71.1,29.96,WSW,254,0.0,0.0,93,0.00,,---,0.00,VWS V14.00,2013-07-09 04:19:00,
2013-07-09 00:24:00,73.2,71.1,29.96,WSW,254,0.0,0.0,93,0.00,,---,0.00,VWS V14.00,2013-07-09 04:24:00,
2013-07-09 00:30:00,73.2,71.1,29.96,WSW,254,0.0,0.0,93,0.00,,---,0.00,VWS V14.00,2013-07-09 04:30:00,
2013-07-09 00:35:00,73.3,71.2,29.96,WSW,254,0.0,0.0,93,0.00,,---,0.00,VWS V14.00,2013-07-09 04:35:00,
2013-07-09 00:40:00,73.3,71.2,29.96,WSW,254,0.0,0.0,93,0.00,,---,0.00,VWS V14.00,2013-07-09 04:40:00,
2013-07-09 00:45:00,73.4,71.3,29.96,WSW,254,0.0,0.0,93,0.00,,---,0.00,VWS V14.00,2013-07-09 04:45:00,
2013-07-09 00:50:00,73.4,71.3,29.96,WSW,254,0.0,0.0,93,0.00,,---,0.00,VWS V14.00,2013-07-09 04:50:00,
2013-07-09 00:55:00,73.4,71.3,29.96,WSW,254,0.0,0.0,93,0.00,,---,0.00,VWS V14.00,2013-07-09 04:55:00,
2013-07-09 01:00:00,73.5,71.4,29.96,WSW,254,0.0,0.0,93,0.00,,---,0.00,VWS V14.00,2013-07-09 05:00:00,
2013-07-09 01:05:00,73.4,71.3,29.95,WSW,254,0.0,0.0,93,0.00,,---,0.00,VWS V14.00,2013-07-09 05:05:00,
2013-07-09 01:10:00,73.4,71.3,29.95,WSW,254,0.0,0.0,93,0.00,,---,0.00,VWS V14.00,2013-07-09 05:10:00,
2013-07-09 01:15:00,73.4,71.3,29.95,WSW,254,0.0,0.0,93,0.00,,---,0.00,VWS V14.00,2013-07-09 05:15:00,
2013-07-09 01:20:00,73.3,71.2,29.95,WSW,254,0.0,0.0,93,0.00,,---,0.00,VWS V14.00,2013-07-09 05:20:00,
2013-07-09 01:25:00,73.3,71.2,29.95,WSW,254,0.0,0.0,93,0.00,,---,0.00,VWS V14.00,2013-07-09 05:25:00,
2013-07-09 01:30:00,73.3,71.2,29.95,WSW,254,0.0,0.0,93,0.00,,---,0.00,VWS V14.00,2013-07-09 05:30:00,
2013-07-09 01:35:00,73.3,71.2,29.94,WSW,254,0.0,1.0,93,0.00,,---,0.00,VWS V14.00,2013-07-09 05:35:00,
2013-07-09 01:40:00,73.2,71.1,29.94,WSW,254,0.0,1.0,93,0.00,,---,0.00,VWS V14.00,2013-07-09 05:40:00,
2013-07-09 01:45:00,73.2,71.1,29.94,WSW,257,0.0,3.0,93,0.00,,---,0.00,VWS V14.00,2013-07-09 05:45:00,
2013-07-09 01:50:00,73.2,71.1,29.94,West,259,0.0,3.0,93,0.00,,---,0.00,VWS V14.00,2013-07-09 05:50:00,
2013-07-09 01:55:00,73.2,71.1,29.94,West,259,0.0,3.0,93,0.00,,---,0.00,VWS V14.00,2013-07-09 05:55:00,
2013-07-09 02:00:00,73.2,71.1,29.94,West,272,0.0,0.0,93,0.00,,---,0.00,VWS V14.00,2013-07-09 06:00:00,
2013-07-09 02:05:00,73.2,71.1,29.94,West,273,0.0,5.0,93,0.00,,---,0.00,VWS V14.00,2013-07-09 06:05:00,
2013-07-09 02:11:00,73.2,71.1,29.94,West,273,0.0,5.0,93,0.00,,---,0.00,VWS V14.00,2013-07-09 06:11:00,
2013-07-09 02:16:00,73.2,71.1,29.94,West,273,0.0,5.0,93,0.00,,---,0.00,VWS V14.00,2013-07-09 06:16:00,
2013-07-09 02:21:00,73.1,71.0,29.94,West,272,2.0,5.0,93,0.00,,---,0.00,VWS V14.00,2013-07-09 06:21:00,
2013-07-09 02:26:00,73.1,71.0,29.94,West,272,0.0,5.0,93,0.00,,---,0.00,VWS V14.00,2013-07-09 06:26:00,
2013-07-09 02:31:00,73.1,71.0,29.94,West,272,0.0,1.0,93,0.00,,---,0.00,VWS V14.00,2013-07-09 06:31:00,
2013-07-09 02:36:00,73.1,71.0,29.94,West,272,0.0,1.0,93,0.00,,---,0.00,VWS V14.00,2013-07-09 06:36:00,
2013-07-09 02:41:00,73.1,71.0,29.94,West,271,0.0,2.0,93,0.00,,---,0.00,VWS V14.00,2013-07-09 06:41:00,
2013-07-09 02:46:00,73.1,71.0,29.94,West,268,1.0,4.0,93,0.00,,---,0.00,VWS V14.00,2013-07-09 06:46:00,
2013-07-09 02:51:00,73.1,71.0,29.94,West,265,1.0,4.0,93,0.00,,---,0.00,VWS V14.00,2013-07-09 06:51:00,
2013-07-09 02:56:00,73.1,71.0,29.94,West,265,0.0,4.0,93,0.00,,---,0.00,VWS V14.00,2013-07-09 06:56:00,
2013-07-09 03:01:00,73.0,70.9,29.94,WSW,248,0.0,1.0,93,0.00,,---,0.00,VWS V14.00,2013-07-09 07:01:00,
2013-07-09 03:06:00,73.0,70.9,29.94,WSW,249,0.0,3.0,93,0.00,,---,0.00,VWS V14.00,2013-07-09 07:06:00,
2013-07-09 03:11:00,73.0,70.9,29.95,West,261,0.0,3.0,93,0.00,,---,0.00,VWS V14.00,2013-07-09 07:11:00,
2013-07-09 03:16:00,72.9,70.8,29.95,West,261,0.0,5.0,93,0.00,,---,0.00,VWS V14.00,2013-07-09 07:16:00,
2013-07-09 03:21:00,72.9,70.8,29.94,WSW,254,0.0,5.0,93,0.00,,---,0.00,VWS V14.00,2013-07-09 07:21:00,
2013-07-09 03:26:00,72.9,70.8,29.95,WSW,255,2.0,5.0,93,0.00,,---,0.00,VWS V14.00,2013-07-09 07:26:00,
2013-07-09 03:31:00,72.9,70.8,29.94,WSW,256,0.0,1.0,93,0.00,,---,0.00,VWS V14.00,2013-07-09 07:31:00,
2013-07-09 03:36:00,72.9,70.8,29.95,West,269,0.0,1.0,93,0.00,,---,0.00,VWS V14.00,2013-07-09 07:36:00,
2013-07-09 03:41:00,73.0,70.9,29.95,West,259,0.0,5.0,93,0.00,,---,0.00,VWS V14.00,2013-07-09 07:41:00,
2013-07-09 03:46:00,73.0,70.9,29.95,West,259,0.0,5.0,93,0.00,,---,0.00,VWS V14.00,2013-07-09 07:46:00,
2013-07-09 03:52:00,72.9,70.8,29.95,West,260,0.0,5.0,93,0.00,,---,0.00,VWS V14.00,2013-07-09 07:52:00,
2013-07-09 03:57:00,72.9,70.8,29.95,West,259,0.0,5.0,93,0.00,,---,0.00,VWS V14.00,2013-07-09 07:57:00,
2013-07-09 04:03:00,72.9,70.8,29.95,West,259,0.0,3.0,93,0.00,,---,0.00,VWS V14.00,2013-07-09 08:03:00,
2013-07-09 04:08:00,72.9,70.8,29.95,West,260,0.0,3.0,93,0.00,,---,0.00,VWS V14.00,2013-07-09 08:08:00,
2013-07-09 04:13:00,72.9,70.8,29.95,West,261,0.0,3.0,93,0.00,,---,0.00,VWS V14.00,2013-07-09 08:13:00,
2013-07-09 04:18:00,72.9,70.8,29.95,WSW,258,0.0,4.0,93,0.00,,---,0.00,VWS V14.00,2013-07-09 08:18:00,
2013-07-09 04:23:00,72.9,70.8,29.95,WSW,258,0.0,4.0,93,0.00,,---,0.00,VWS V14.00,2013-07-09 08:23:00,
2013-07-09 04:28:00,72.9,70.8,29.95,WSW,258,0.0,4.0,93,0.00,,---,0.00,VWS V14.00,2013-07-09 08:28:00,
2013-07-09 04:33:00,72.9,70.8,29.95,West,259,0.0,1.0,93,0.00,,---,0.00,VWS V14.00,2013-07-09 08:33:00,
2013-07-09 04:38:00,72.9,70.8,29.95,WSW,258,0.0,2.0,93,0.00,,---,0.00,VWS V14.00,2013-07-09 08:38:00,
2013-07-09 04:43:00,73.0,70.9,29.95,West,259,0.0,2.0,93,0.00,,---,0.00,VWS V14.00,2013-07-09 08:43:00,
2013-07-09 04:48:00,72.9,70.8,29.95,West,259,0.0,2.0,93,0.00,,---,0.00,VWS V14.00,2013-07-09 08:48:00,
2013-07-09 04:53:00,73.0,70.9,29.94,West,259,0.0,2.0,93,0.00,,---,0.00,VWS V14.00,2013-07-09 08:53:00,
2013-07-09 04:58:00,72.9,70.8,29.94,West,259,0.0,2.0,93,0.00,,---,0.00,VWS V14.00,2013-07-09 08:58:00,
2013-07-09 05:04:00,72.9,70.8,29.94,West,259,0.0,1.0,93,0.00,,---,0.00,VWS V14.00,2013-07-09 09:04:00,
2013-07-09 05:09:00,72.9,70.8,29.94,West,261,0.0,4.0,93,0.00,,---,0.00,VWS V14.00,2013-07-09 09:09:00,
2013-07-09 05:14:00,72.9,70.8,29.94,West,261,0.0,4.0,93,0.00,,---,0.00,VWS V14.00,2013-07-09 09:14:00,
2013-07-09 05:19:00,72.9,70.8,29.95,West,261,0.0,4.0,93,0.00,,---,0.00,VWS V14.00,2013-07-09 09:19:00,
2013-07-09 05:24:00,72.8,70.7,29.95,West,261,0.0,4.0,93,0.00,,---,0.00,VWS V14.00,2013-07-09 09:24:00,
2013-07-09 05:29:00,72.8,70.7,29.95,WSW,250,0.0,4.0,93,0.00,,---,0.00,VWS V14.00,2013-07-09 09:29:00,
2013-07-09 05:34:00,72.8,70.7,29.95,WSW,251,0.0,2.0,93,0.00,,---,0.00,VWS V14.00,2013-07-09 09:34:00,
2013-07-09 05:39:00,72.8,70.7,29.95,WSW,251,0.0,2.0,93,0.00,,---,0.00,VWS V14.00,2013-07-09 09:39:00,
2013-07-09 05:44:00,72.7,70.6,29.95,WSW,251,0.0,2.0,93,0.00,,---,0.00,VWS V14.00,2013-07-09 09:44:00,
2013-07-09 05:49:00,72.6,70.5,29.95,WSW,251,1.0,2.0,93,0.00,,---,0.00,VWS V14.00,2013-07-09 09:49:00,
2013-07-09 05:54:00,72.6,70.5,29.95,WSW,251,0.0,2.0,93,0.00,,---,0.00,VWS V14.00,2013-07-09 09:54:00,
2013-07-09 05:59:00,72.6,70.5,29.95,West,260,0.0,4.0,93,0.00,,---,0.00,VWS V14.00,2013-07-09 09:59:00,
2013-07-09 06:04:00,72.6,70.5,29.95,West,268,0.0,4.0,93,0.00,,---,0.00,VWS V14.00,2013-07-09 10:04:00,
2013-07-09 06:09:00,72.6,70.5,29.95,West,268,0.0,4.0,93,0.00,,---,0.00,VWS V14.00,2013-07-09 10:09:00,
2013-07-09 06:14:00,72.5,70.4,29.95,West,267,0.0,4.0,93,0.00,,---,0.00,VWS V14.00,2013-07-09 10:14:00,
2013-07-09 06:19:00,72.6,70.5,29.95,West,268,0.0,4.0,93,0.00,,---,0.00,VWS V14.00,2013-07-09 10:19:00,
2013-07-09 06:24:00,72.6,70.5,29.96,West,268,0.0,4.0,93,0.00,,---,0.00,VWS V14.00,2013-07-09 10:24:00,
2013-07-09 06:29:00,72.6,70.5,29.96,West,259,3.0,4.0,93,0.00,,---,0.00,VWS V14.00,2013-07-09 10:29:00,
2013-07-09 06:34:00,72.7,70.6,29.96,West,266,0.0,5.0,93,0.00,,---,0.00,VWS V14.00,2013-07-09 10:34:00,
2013-07-09 06:40:00,72.8,70.7,29.96,West,266,0.0,5.0,93,0.00,,---,0.00,VWS V14.00,2013-07-09 10:40:00,
2013-07-09 06:45:00,72.8,70.7,29.96,West,263,0.0,5.0,93,0.00,,---,0.00,VWS V14.00,2013-07-09 10:45:00,
2013-07-09 06:50:00,72.9,70.8,29.96,West,259,0.0,5.0,93,0.00,,---,0.00,VWS V14.00,2013-07-09 10:50:00,
2013-07-09 06:55:00,73.0,70.9,29.97,West,259,0.0,5.0,93,0.00,,---,0.00,VWS V14.00,2013-07-09 10:55:00,
2013-07-09 07:00:00,73.0,70.9,29.97,West,259,0.0,1.0,93,0.00,,---,0.00,VWS V14.00,2013-07-09 11:00:00,
2013-07-09 07:05:00,73.1,71.0,29.97,West,259,0.0,2.0,93,0.00,,---,0.00,VWS V14.00,2013-07-09 11:05:00,
2013-07-09 07:10:00,73.1,71.0,29.96,West,259,0.0,2.0,93,0.00,,---,0.00,VWS V14.00,2013-07-09 11:10:00,
2013-07-09 07:15:00,73.1,71.0,29.96,West,259,0.0,2.0,93,0.00,,---,0.00,VWS V14.00,2013-07-09 11:15:00,
2013-07-09 07:20:00,73.2,71.1,29.95,West,267,0.0,4.0,93,0.00,,---,0.00,VWS V14.00,2013-07-09 11:20:00,
2013-07-09 07:25:00,73.3,71.2,29.95,West,267,0.0,4.0,93,0.00,,---,0.00,VWS V14.00,2013-07-09 11:25:00,
2013-07-09 07:30:00,73.3,71.2,29.96,West,267,0.0,1.0,93,0.00,,---,0.00,VWS V14.00,2013-07-09 11:30:00,
2013-07-09 07:35:00,73.4,71.3,29.96,West,267,0.0,1.0,93,0.00,,---,0.00,VWS V14.00,2013-07-09 11:35:00,
2013-07-09 07:40:00,73.4,71.3,29.97,West,267,0.0,1.0,93,0.00,,---,0.00,VWS V14.00,2013-07-09 11:40:00,
2013-07-09 07:45:00,73.5,71.4,29.96,West,262,0.0,4.0,93,0.00,,---,0.00,VWS V14.00,2013-07-09 11:45:00,
2013-07-09 07:50:00,73.5,71.4,29.96,West,262,0.0,4.0,93,0.00,,---,0.00,VWS V14.00,2013-07-09 11:50:00,
2013-07-09 07:55:00,73.6,71.5,29.96,West,262,0.0,4.0,93,0.00,,---,0.00,VWS V14.00,2013-07-09 11:55:00,
2013-07-09 08:00:00,73.7,71.6,29.96,West,263,1.0,3.0,93,0.00,,---,0.00,VWS V14.00,2013-07-09 12:00:00,
2013-07-09 08:05:00,73.7,71.6,29.97,West,263,0.0,4.0,93,0.00,,---,0.00,VWS V14.00,2013-07-09 12:05:00,
2013-07-09 08:10:00,73.8,71.7,29.97,West,263,0.0,4.0,93,0.00,,---,0.00,VWS V14.00,2013-07-09 12:10:00,
2013-07-09 08:15:00,73.8,71.7,29.97,West,259,2.0,4.0,93,0.00,,---,0.00,VWS V14.00,2013-07-09 12:15:00,
2013-07-09 08:21:00,73.9,71.8,29.97,West,262,0.0,5.0,93,0.00,,---,0.00,VWS V14.00,2013-07-09 12:21:00,
2013-07-09 08:26:00,73.9,71.8,29.96,West,271,0.0,5.0,93,0.00,,---,0.00,VWS V14.00,2013-07-09 12:26:00,
2013-07-09 08:31:00,74.0,71.8,29.96,West,271,0.0,1.0,93,0.00,,---,0.00,VWS V14.00,2013-07-09 12:31:00,
2013-07-09 08:36:00,74.1,71.9,29.97,West,272,5.0,5.0,93,0.00,,---,0.00,VWS V14.00,2013-07-09 12:36:00,
2013-07-09 08:41:00,74.2,72.1,29.96,West,271,0.0,5.0,93,0.00,,---,0.00,VWS V14.00,2013-07-09 12:41:00,
2013-07-09 08:46:00,74.2,72.1,29.96,WSW,252,0.0,5.0,93,0.00,,---,0.00,VWS V14.00,2013-07-09 12:46:00,
2013-07-09 08:51:00,74.3,72.2,29.96,SW,232,0.0,5.0,93,0.00,,---,0.00,VWS V14.00,2013-07-09 12:51:00,
2013-07-09 08:56:00,74.3,72.2,29.96,WSW,244,0.0,5.0,93,0.00,,---,0.00,VWS V14.00,2013-07-09 12:56:00,
2013-07-09 09:01:00,74.4,72.2,29.97,WSW,244,3.0,3.0,93,0.00,,---,0.00,VWS V14.00,2013-07-09 13:01:00,
2013-07-09 09:06:00,74.4,72.2,29.97,WSW,244,0.0,3.0,93,0.00,,---,0.00,VWS V14.00,2013-07-09 13:06:00,
2013-07-09 09:11:00,74.4,72.2,29.97,WSW,250,1.0,3.0,93,0.00,,---,0.00,VWS V14.00,2013-07-09 13:11:00,
2013-07-09 09:16:00,74.4,72.2,29.97,West,265,3.0,3.0,93,0.00,,---,0.00,VWS V14.00,2013-07-09 13:16:00,
2013-07-09 09:21:00,74.3,72.2,29.97,West,264,0.0,5.0,93,0.00,,---,0.00,VWS V14.00,2013-07-09 13:21:00,
2013-07-09 09:26:00,74.4,72.2,29.97,West,259,0.0,5.0,93,0.00,,---,0.00,VWS V14.00,2013-07-09 13:26:00,
2013-07-09 09:31:00,74.4,72.2,29.97,West,259,0.0,1.0,93,0.00,,---,0.00,VWS V14.00,2013-07-09 13:31:00,
2013-07-09 09:36:00,74.5,72.3,29.97,WSW,257,0.0,4.0,93,0.00,,---,0.00,VWS V14.00,2013-07-09 13:36:00,
2013-07-09 09:41:00,74.6,72.4,29.97,West,260,0.0,4.0,93,0.00,,---,0.00,VWS V14.00,2013-07-09 13:41:00,
2013-07-09 09:46:00,74.8,72.6,29.97,West,261,0.0,4.0,93,0.00,,---,0.00,VWS V14.00,2013-07-09 13:46:00,
2013-07-09 09:51:00,75.0,72.8,29.97,West,261,3.0,4.0,93,0.00,,---,0.00,VWS V14.00,2013-07-09 13:51:00,
2013-07-09 09:56:00,75.1,72.9,29.97,West,261,0.0,4.0,93,0.00,,---,0.00,VWS V14.00,2013-07-09 13:56:00,
2013-07-09 10:02:00,75.1,72.9,29.97,West,261,0.0,1.0,93,0.00,,---,0.00,VWS V14.00,2013-07-09 14:02:00,
2013-07-09 10:07:00,75.3,73.1,29.96,West,261,0.0,3.0,93,0.00,,---,0.00,VWS V14.00,2013-07-09 14:07:00,
2013-07-09 10:12:00,75.5,73.3,29.96,West,261,0.0,3.0,93,0.00,,---,0.00,VWS V14.00,2013-07-09 14:12:00,
2013-07-09 10:17:00,75.7,73.5,29.96,West,262,0.0,4.0,93,0.00,,---,0.00,VWS V14.00,2013-07-09 14:17:00,
2013-07-09 10:22:00,76.0,73.8,29.96,West,262,0.0,4.0,93,0.00,,---,0.00,VWS V14.00,2013-07-09 14:22:00,
2013-07-09 10:27:00,76.2,74.0,29.96,West,261,0.0,5.0,93,0.00,,---,0.00,VWS V14.00,2013-07-09 14:27:00,
2013-07-09 10:32:00,76.7,74.5,29.96,SW,219,0.0,5.0,93,0.00,,---,0.00,VWS V14.00,2013-07-09 14:32:00,
2013-07-09 10:37:00,76.9,74.4,29.96,WSW,250,4.0,6.0,92,0.00,,---,0.00,VWS V14.00,2013-07-09 14:37:00,
2013-07-09 10:42:00,77.2,74.4,29.96,SW,236,0.0,6.0,91,0.00,,---,0.00,VWS V14.00,2013-07-09 14:42:00,
2013-07-09 10:47:00,77.7,74.9,29.96,WSW,252,0.0,6.0,91,0.00,,---,0.00,VWS V14.00,2013-07-09 14:47:00,
2013-07-09 10:52:00,78.2,75.4,29.96,WSW,252,0.0,6.0,91,0.00,,---,0.00,VWS V14.00,2013-07-09 14:52:00,
2013-07-09 10:57:00,78.5,75.3,29.96,SW,224,0.0,6.0,90,0.00,,---,0.00,VWS V14.00,2013-07-09 14:57:00,
2013-07-09 11:02:00,78.8,75.6,29.95,WSW,251,2.0,5.0,90,0.00,,---,0.00,VWS V14.00,2013-07-09 15:02:00,
2013-07-09 11:07:00,79.3,75.8,29.95,West,263,0.0,7.0,89,0.00,,---,0.00,VWS V14.00,2013-07-09 15:07:00,
2013-07-09 11:12:00,79.8,75.9,29.95,WSW,258,2.0,7.0,88,0.00,,---,0.00,VWS V14.00,2013-07-09 15:12:00,
2013-07-09 11:17:00,80.3,76.4,29.95,WNW,282,0.0,7.0,88,0.00,,---,0.00,VWS V14.00,2013-07-09 15:17:00,
2013-07-09 11:22:00,80.5,75.9,29.95,West,259,2.0,7.0,86,0.00,,---,0.00,VWS V14.00,2013-07-09 15:22:00,
2013-07-09 11:27:00,80.7,76.1,29.95,WSW,244,0.0,7.0,86,0.00,,---,0.00,VWS V14.00,2013-07-09 15:27:00,
2013-07-09 11:32:00,81.1,76.5,29.95,West,259,2.0,6.0,86,0.00,,---,0.00,VWS V14.00,2013-07-09 15:32:00,
2013-07-09 11:37:00,81.5,76.6,29.95,West,261,3.0,6.0,85,0.00,,---,0.00,VWS V14.00,2013-07-09 15:37:00,
2013-07-09 11:42:00,81.8,76.5,29.95,West,267,0.0,6.0,84,0.00,,---,0.00,VWS V14.00,2013-07-09 15:42:00,
2013-07-09 11:48:00,82.0,76.3,29.95,West,263,0.0,6.0,83,0.00,,---,0.00,VWS V14.00,2013-07-09 15:48:00,
2013-07-09 11:53:00,82.2,76.9,29.95,West,265,0.0,6.0,84,0.00,,---,0.00,VWS V14.00,2013-07-09 15:53:00,
2013-07-09 11:58:00,82.4,76.4,29.95,WSW,238,0.0,6.0,82,0.00,,---,0.00,VWS V14.00,2013-07-09 15:58:00,
2013-07-09 12:03:00,82.7,76.7,29.95,WSW,257,2.0,5.0,82,0.00,,---,0.00,VWS V14.00,2013-07-09 16:03:00,
2013-07-09 12:08:00,83.1,76.7,29.95,WSW,243,1.0,7.0,81,0.00,,---,0.00,VWS V14.00,2013-07-09 16:08:00,
2013-07-09 12:13:00,83.4,76.2,29.95,West,267,0.0,7.0,79,0.00,,---,0.00,VWS V14.00,2013-07-09 16:13:00,
2013-07-09 12:18:00,83.6,76.8,29.95,WSW,251,6.0,8.0,80,0.00,,---,0.00,VWS V14.00,2013-07-09 16:18:00,
2013-07-09 12:23:00,83.9,77.4,29.95,West,263,0.0,8.0,81,0.00,,---,0.00,VWS V14.00,2013-07-09 16:23:00,
2013-07-09 12:28:00,84.2,77.7,29.95,WSW,252,0.0,8.0,81,0.00,,---,0.00,VWS V14.00,2013-07-09 16:28:00,
2013-07-09 12:33:00,84.2,76.6,29.95,WNW,286,8.0,8.0,78,0.00,,---,0.00,VWS V14.00,2013-07-09 16:33:00,
2013-07-09 12:38:00,84.1,76.1,29.94,West,271,0.0,8.0,77,0.00,,---,0.00,VWS V14.00,2013-07-09 16:38:00,
2013-07-09 12:43:00,84.2,76.6,29.95,WSW,250,2.0,11.0,78,0.00,,---,0.00,VWS V14.00,2013-07-09 16:43:00,
2013-07-09 12:48:00,84.3,76.7,29.94,West,271,2.0,11.0,78,0.00,,---,0.00,VWS V14.00,2013-07-09 16:48:00,
2013-07-09 12:53:00,84.4,76.4,29.94,WSW,247,1.0,11.0,77,0.00,,---,0.00,VWS V14.00,2013-07-09 16:53:00,
2013-07-09 12:58:00,84.7,77.5,29.94,West,263,1.0,11.0,79,0.00,,---,0.00,VWS V14.00,2013-07-09 16:58:00,
2013-07-09 13:03:00,85.2,76.4,29.94,West,272,0.0,8.0,75,0.00,,---,0.00,VWS V14.00,2013-07-09 17:03:00,
2013-07-09 13:08:00,85.4,76.6,29.94,WSW,242,3.0,8.0,75,0.00,,---,0.00,VWS V14.00,2013-07-09 17:08:00,
2013-07-09 13:13:00,85.6,76.8,29.94,West,271,2.0,8.0,75,0.00,,---,0.00,VWS V14.00,2013-07-09 17:13:00,
2013-07-09 13:18:00,85.8,77.4,29.93,WSW,241,0.0,8.0,76,0.00,,---,0.00,VWS V14.00,2013-07-09 17:18:00,
2013-07-09 13:23:00,85.8,77.0,29.93,West,267,2.0,8.0,75,0.00,,---,0.00,VWS V14.00,2013-07-09 17:23:00,
2013-07-09 13:28:00,85.5,76.7,29.93,WNW,288,0.0,8.0,75,0.00,,---,0.00,VWS V14.00,2013-07-09 17:28:00,
2013-07-09 13:34:00,85.2,76.8,29.93,West,267,4.0,13.0,76,0.00,,---,0.00,VWS V14.00,2013-07-09 17:34:00,
2013-07-09 13:39:00,85.2,77.2,29.93,West,276,1.0,13.0,77,0.00,,---,0.00,VWS V14.00,2013-07-09 17:39:00,
2013-07-09 13:44:00,85.5,77.9,29.93,West,267,1.0,13.0,78,0.00,,---,0.00,VWS V14.00,2013-07-09 17:44:00,
2013-07-09 13:49:00,85.7,78.8,29.93,West,275,11.0,13.0,80,0.03,,---,0.03,VWS V14.00,2013-07-09 17:49:00,
2013-07-09 13:54:00,84.7,77.8,29.93,West,265,0.0,13.0,80,0.09,,---,0.09,VWS V14.00,2013-07-09 17:54:00,
2013-07-09 13:59:00,83.6,78.3,29.92,WSW,249,0.0,13.0,84,0.10,,---,0.10,VWS V14.00,2013-07-09 17:59:00,
2013-07-09 14:04:00,82.8,77.8,29.93,West,261,0.0,7.0,85,0.10,,---,0.10,VWS V14.00,2013-07-09 18:04:00,
2013-07-09 14:09:00,82.4,77.8,29.93,WSW,257,0.0,7.0,86,0.10,,---,0.10,VWS V14.00,2013-07-09 18:09:00,
2013-07-09 14:14:00,82.4,78.1,29.92,West,267,0.0,7.0,87,0.10,,---,0.10,VWS V14.00,2013-07-09 18:14:00,
2013-07-09 14:19:00,82.7,78.4,29.92,West,265,0.0,7.0,87,0.10,,---,0.10,VWS V14.00,2013-07-09 18:19:00,
2013-07-09 14:24:00,83.2,79.3,29.92,West,266,5.0,7.0,88,0.10,,---,0.10,VWS V14.00,2013-07-09 18:24:00,
2013-07-09 14:29:00,83.4,78.1,29.91,WNW,286,0.0,8.0,84,0.10,,---,0.10,VWS V14.00,2013-07-09 18:29:00,
2013-07-09 14:34:00,83.5,77.1,29.91,WSW,251,3.0,15.0,81,0.10,,---,0.10,VWS V14.00,2013-07-09 18:34:00,
2013-07-09 14:39:00,83.6,76.8,29.91,West,272,2.0,16.0,80,0.10,,---,0.10,VWS V14.00,2013-07-09 18:39:00,
2013-07-09 14:45:00,83.5,75.9,29.91,West,279,4.0,16.0,78,0.10,,---,0.10,VWS V14.00,2013-07-09 18:45:00,
2013-07-09 14:50:00,83.4,74.7,29.91,WSW,258,2.0,16.0,75,0.10,,---,0.10,VWS V14.00,2013-07-09 18:50:00,
2013-07-09 14:55:00,83.4,75.8,29.91,West,263,4.0,16.0,78,0.10,,---,0.10,VWS V14.00,2013-07-09 18:55:00,
2013-07-09 15:00:00,83.3,75.7,29.92,WSW,252,3.0,16.0,78,0.10,,---,0.10,VWS V14.00,2013-07-09 19:00:00,
2013-07-09 15:05:00,83.2,75.6,29.92,West,266,4.0,4.0,78,0.00,,---,0.10,VWS V14.00,2013-07-09 19:05:00,
2013-07-09 15:10:00,83.1,75.5,29.92,WSW,253,1.0,9.0,78,0.00,,---,0.10,VWS V14.00,2013-07-09 19:10:00,
2013-07-09 15:15:00,83.0,75.4,29.91,West,266,2.0,9.0,78,0.00,,---,0.10,VWS V14.00,2013-07-09 19:15:00,
2013-07-09 15:20:00,82.8,74.9,29.92,WSW,257,0.0,11.0,77,0.00,,---,0.10,VWS V14.00,2013-07-09 19:20:00,
2013-07-09 15:25:00,82.7,74.8,29.92,WSW,248,3.0,11.0,77,0.00,,---,0.10,VWS V14.00,2013-07-09 19:25:00,
2013-07-09 15:30:00,82.5,74.6,29.91,West,275,0.0,0.0,77,0.00,,---,0.10,VWS V14.00,2013-07-09 19:30:00,
2013-07-09 15:35:00,82.3,74.8,29.91,WSW,254,0.0,6.0,78,0.00,,---,0.10,VWS V14.00,2013-07-09 19:35:00,
2013-07-09 15:40:00,82.1,74.6,29.91,West,265,0.0,6.0,78,0.00,,---,0.10,VWS V14.00,2013-07-09 19:40:00,
2013-07-09 15:45:00,82.0,75.2,29.91,West,265,2.0,6.0,80,0.00,,---,0.10,VWS V14.00,2013-07-09 19:45:00,
2013-07-09 15:50:00,81.8,75.0,29.91,West,265,1.0,6.0,80,0.00,,---,0.10,VWS V14.00,2013-07-09 19:50:00,
2013-07-09 15:55:00,81.6,74.8,29.92,West,274,5.0,6.0,80,0.00,,---,0.10,VWS V14.00,2013-07-09 19:55:00,
2013-07-09 16:00:00,81.6,74.8,29.91,SW,223,1.0,3.0,80,0.00,,---,0.10,VWS V14.00,2013-07-09 20:00:00,
2013-07-09 16:05:00,81.5,74.7,29.91,West,277,0.0,6.0,80,0.00,,---,0.10,VWS V14.00,2013-07-09 20:05:00,
2013-07-09 16:11:00,81.5,74.7,29.92,West,278,2.0,8.0,80,0.00,,---,0.10,VWS V14.00,2013-07-09 20:11:00,
2013-07-09 16:16:00,81.5,74.4,29.92,WNW,287,2.0,8.0,79,0.00,,---,0.10,VWS V14.00,2013-07-09 20:16:00,
2013-07-09 16:21:00,81.5,74.0,29.92,WNW,287,2.0,12.0,78,0.00,,---,0.10,VWS V14.00,2013-07-09 20:21:00,
2013-07-09 16:26:00,81.7,74.2,29.92,WSW,254,3.0,12.0,78,0.00,,---,0.10,VWS V14.00,2013-07-09 20:26:00,
2013-07-09 16:31:00,81.6,74.1,29.92,West,268,0.0,0.0,78,0.00,,---,0.10,VWS V14.00,2013-07-09 20:31:00,
2013-07-09 16:36:00,81.5,74.4,29.92,WSW,244,0.0,3.0,79,0.00,,---,0.10,VWS V14.00,2013-07-09 20:36:00,
2013-07-09 16:41:00,81.1,74.0,29.93,WSW,252,1.0,3.0,79,0.00,,---,0.10,VWS V14.00,2013-07-09 20:41:00,
2013-07-09 16:46:00,79.6,73.3,29.93,SW,236,0.0,3.0,81,0.00,,---,0.10,VWS V14.00,2013-07-09 20:46:00,
2013-07-09 16:51:00,78.4,72.4,29.93,SSE,159,0.0,3.0,82,0.00,,---,0.10,VWS V14.00,2013-07-09 20:51:00,
2013-07-09 16:56:00,77.5,72.3,29.93,SSE,159,0.0,3.0,84,0.01,,---,0.11,VWS V14.00,2013-07-09 20:56:00,
2013-07-09 17:01:00,76.7,71.9,29.94,SSE,159,0.0,0.0,85,0.03,,---,0.13,VWS V14.00,2013-07-09 21:01:00,
2013-07-09 17:06:00,76.0,71.9,29.93,SSE,159,0.0,0.0,87,0.13,,---,0.23,VWS V14.00,2013-07-09 21:06:00,
2013-07-09 17:11:00,75.6,71.8,29.93,SSE,159,0.0,0.0,88,0.16,,---,0.26,VWS V14.00,2013-07-09 21:11:00,
2013-07-09 17:16:00,75.1,71.3,29.92,SSE,159,0.0,0.0,88,0.16,,---,0.26,VWS V14.00,2013-07-09 21:16:00,
2013-07-09 17:21:00,74.8,71.3,29.92,SSE,159,0.0,0.0,89,0.17,,---,0.27,VWS V14.00,2013-07-09 21:21:00,
2013-07-09 17:26:00,74.6,71.5,29.92,SSE,159,0.0,0.0,90,0.17,,---,0.27,VWS V14.00,2013-07-09 21:26:00,
2013-07-09 17:31:00,74.4,71.3,29.92,SSE,159,0.0,0.0,90,0.17,,---,0.27,VWS V14.00,2013-07-09 21:31:00,
2013-07-09 17:36:00,74.3,71.2,29.92,SSE,159,0.0,0.0,90,0.17,,---,0.27,VWS V14.00,2013-07-09 21:36:00,
2013-07-09 17:41:00,74.2,71.1,29.92,SSE,159,0.0,0.0,90,0.17,,---,0.27,VWS V14.00,2013-07-09 21:41:00,
2013-07-09 17:46:00,74.1,71.3,29.92,SSE,159,0.0,0.0,91,0.17,,---,0.27,VWS V14.00,2013-07-09 21:46:00,
2013-07-09 17:52:00,74.2,71.4,29.91,SSE,159,0.0,0.0,91,0.17,,---,0.27,VWS V14.00,2013-07-09 21:52:00,
2013-07-09 17:57:00,74.3,71.5,29.91,SSE,159,0.0,0.0,91,0.17,,---,0.27,VWS V14.00,2013-07-09 21:57:00,
2013-07-09 18:02:00,74.3,71.5,29.90,SSE,159,0.0,0.0,91,0.15,,---,0.27,VWS V14.00,2013-07-09 22:02:00,
2013-07-09 18:07:00,74.5,71.7,29.90,SSE,159,0.0,0.0,91,0.15,,---,0.27,VWS V14.00,2013-07-09 22:07:00,
2013-07-09 18:12:00,74.6,71.8,29.90,SSE,159,0.0,0.0,91,0.15,,---,0.27,VWS V14.00,2013-07-09 22:12:00,
2013-07-09 18:17:00,74.8,72.3,29.90,SSE,159,0.0,0.0,92,0.15,,---,0.27,VWS V14.00,2013-07-09 22:17:00,
2013-07-09 18:22:00,74.9,72.4,29.90,SSE,159,0.0,0.0,92,0.15,,---,0.27,VWS V14.00,2013-07-09 22:22:00,
2013-07-09 18:27:00,75.0,72.5,29.90,SSE,159,0.0,0.0,92,0.15,,---,0.27,VWS V14.00,2013-07-09 22:27:00,
2013-07-09 18:32:00,75.2,72.7,29.90,SSE,159,0.0,0.0,92,0.00,,---,0.27,VWS V14.00,2013-07-09 22:32:00,
2013-07-09 18:37:00,75.4,72.9,29.89,SSE,158,0.0,0.0,92,0.00,,---,0.27,VWS V14.00,2013-07-09 22:37:00,
2013-07-09 18:42:00,75.6,73.1,29.89,SSE,159,1.0,1.0,92,0.00,,---,0.27,VWS V14.00,2013-07-09 22:42:00,
2013-07-09 18:47:00,75.5,72.7,29.89,SSE,159,0.0,1.0,91,0.00,,---,0.27,VWS V14.00,2013-07-09 22:47:00,
2013-07-09 18:52:00,75.5,73.0,29.88,SSE,159,0.0,1.0,92,0.00,,---,0.27,VWS V14.00,2013-07-09 22:52:00,
2013-07-09 18:57:00,75.8,73.3,29.87,SSE,159,0.0,1.0,92,0.00,,---,0.27,VWS V14.00,2013-07-09 22:57:00,
2013-07-09 19:02:00,75.9,73.4,29.87,SSE,163,0.0,1.0,92,0.00,,---,0.27,VWS V14.00,2013-07-09 23:02:00,
2013-07-09 19:07:00,75.9,73.4,29.87,SSE,163,0.0,1.0,92,0.00,,---,0.27,VWS V14.00,2013-07-09 23:07:00,
2013-07-09 19:12:00,76.0,73.5,29.86,SSE,163,0.0,1.0,92,0.00,,---,0.27,VWS V14.00,2013-07-09 23:12:00,
2013-07-09 19:17:00,76.3,73.8,29.87,SSE,163,0.0,1.0,92,0.00,,---,0.27,VWS V14.00,2013-07-09 23:17:00,
2013-07-09 19:22:00,76.6,74.1,29.87,SSE,163,0.0,1.0,92,0.00,,---,0.27,VWS V14.00,2013-07-09 23:22:00,
2013-07-09 19:27:00,76.7,74.2,29.87,North,5,0.0,1.0,92,0.00,,---,0.27,VWS V14.00,2013-07-09 23:27:00,
2013-07-09 19:32:00,76.8,74.3,29.87,North,5,0.0,0.0,92,0.00,,---,0.27,VWS V14.00,2013-07-09 23:32:00,
2013-07-09 19:38:00,76.8,74.0,29.87,North,5,0.0,0.0,91,0.00,,---,0.27,VWS V14.00,2013-07-09 23:38:00,
2013-07-09 19:43:00,76.8,74.0,29.87,West,265,0.0,1.0,91,0.00,,---,0.27,VWS V14.00,2013-07-09 23:43:00,
2013-07-09 19:48:00,76.8,74.0,29.87,West,265,0.0,1.0,91,0.00,,---,0.27,VWS V14.00,2013-07-09 23:48:00,
2013-07-09 19:53:00,76.8,74.0,29.87,West,265,0.0,1.0,91,0.00,,---,0.27,VWS V14.00,2013-07-09 23:53:00,
2013-07-09 19:58:00,76.9,74.1,29.87,West,265,0.0,1.0,91,0.00,,---,0.27,VWS V14.00,2013-07-09 23:58:00,
2013-07-09 20:03:00,76.8,74.0,29.87,West,265,0.0,0.0,91,0.00,,---,0.27,VWS V14.00,2013-07-10 00:03:00,
2013-07-09 20:08:00,76.8,74.0,29.87,East,82,0.0,0.0,91,0.00,,---,0.27,VWS V14.00,2013-07-10 00:08:00,
2013-07-09 20:13:00,76.7,73.9,29.87,East,82,0.0,0.0,91,0.00,,---,0.27,VWS V14.00,2013-07-10 00:13:00,
2013-07-09 20:18:00,76.7,73.9,29.88,East,81,0.0,0.0,91,0.00,,---,0.27,VWS V14.00,2013-07-10 00:18:00,
2013-07-09 20:23:00,76.8,74.3,29.87,West,265,0.0,0.0,92,0.00,,---,0.27,VWS V14.00,2013-07-10 00:23:00,
2013-07-09 20:28:00,76.8,74.3,29.87,West,265,0.0,0.0,92,0.00,,---,0.27,VWS V14.00,2013-07-10 00:28:00,
2013-07-09 20:33:00,76.7,73.9,29.87,West,265,0.0,0.0,91,0.00,,---,0.27,VWS V14.00,2013-07-10 00:33:00,
2013-07-09 20:38:00,76.7,73.9,29.88,West,265,0.0,0.0,91,0.00,,---,0.27,VWS V14.00,2013-07-10 00:38:00,
2013-07-09 20:43:00,76.7,74.2,29.87,West,265,0.0,0.0,92,0.00,,---,0.27,VWS V14.00,2013-07-10 00:43:00,
2013-07-09 20:48:00,76.7,74.2,29.88,West,265,0.0,0.0,92,0.00,,---,0.27,VWS V14.00,2013-07-10 00:48:00,
2013-07-09 20:53:00,76.7,74.2,29.88,West,265,0.0,0.0,92,0.00,,---,0.27,VWS V14.00,2013-07-10 00:53:00,
2013-07-09 20:58:00,76.7,74.2,29.88,West,265,0.0,0.0,92,0.00,,---,0.27,VWS V14.00,2013-07-10 00:58:00,
2013-07-09 21:03:00,76.7,74.2,29.87,West,265,0.0,0.0,92,0.00,,---,0.27,VWS V14.00,2013-07-10 01:03:00,
2013-07-09 21:08:00,76.7,74.2,29.87,West,265,0.0,0.0,92,0.00,,---,0.27,VWS V14.00,2013-07-10 01:08:00,
2013-07-09 21:13:00,76.7,74.2,29.87,West,265,0.0,0.0,92,0.00,,---,0.27,VWS V14.00,2013-07-10 01:13:00,
2013-07-09 21:18:00,76.7,74.2,29.87,West,265,0.0,0.0,92,0.00,,---,0.27,VWS V14.00,2013-07-10 01:18:00,
2013-07-09 21:22:00,76.7,74.2,29.87,West,265,0.0,0.0,92,0.00,,---,0.27,VWS V14.00,2013-07-10 01:22:00,
2013-07-09 21:28:00,76.7,74.2,29.87,West,265,0.0,0.0,92,0.00,,---,0.27,VWS V14.00,2013-07-10 01:28:00,
2013-07-09 21:33:00,76.7,74.2,29.87,West,265,0.0,0.0,92,0.00,,---,0.27,VWS V14.00,2013-07-10 01:33:00,
2013-07-09 21:38:00,76.7,74.2,29.87,West,265,0.0,0.0,92,0.00,,---,0.27,VWS V14.00,2013-07-10 01:38:00,
2013-07-09 21:43:00,76.7,74.2,29.87,West,265,0.0,0.0,92,0.00,,---,0.27,VWS V14.00,2013-07-10 01:43:00,
2013-07-09 21:48:00,76.7,74.2,29.87,West,265,0.0,0.0,92,0.00,,---,0.27,VWS V14.00,2013-07-10 01:48:00,
2013-07-09 21:53:00,76.7,74.2,29.87,West,265,0.0,0.0,92,0.00,,---,0.27,VWS V14.00,2013-07-10 01:53:00,
2013-07-09 21:58:00,76.6,74.1,29.88,West,265,0.0,0.0,92,0.00,,---,0.27,VWS V14.00,2013-07-10 01:58:00,
2013-07-09 22:03:00,76.6,74.1,29.88,West,265,0.0,0.0,92,0.00,,---,0.27,VWS V14.00,2013-07-10 02:03:00,
2013-07-09 22:08:00,76.6,74.1,29.88,West,265,0.0,0.0,92,0.00,,---,0.27,VWS V14.00,2013-07-10 02:08:00,
2013-07-09 22:13:00,76.5,74.0,29.88,West,265,0.0,0.0,92,0.00,,---,0.27,VWS V14.00,2013-07-10 02:13:00,
2013-07-09 22:18:00,76.5,74.0,29.88,West,265,0.0,0.0,92,0.00,,---,0.27,VWS V14.00,2013-07-10 02:18:00,
2013-07-09 22:23:00,76.5,74.0,29.88,West,265,0.0,0.0,92,0.00,,---,0.27,VWS V14.00,2013-07-10 02:23:00,
2013-07-09 22:28:00,76.4,73.9,29.88,West,265,0.0,0.0,92,0.00,,---,0.27,VWS V14.00,2013-07-10 02:28:00,
2013-07-09 22:33:00,76.4,73.9,29.88,West,265,0.0,0.0,92,0.00,,---,0.27,VWS V14.00,2013-07-10 02:33:00,
2013-07-09 22:38:00,76.3,73.8,29.88,West,265,0.0,0.0,92,0.00,,---,0.27,VWS V14.00,2013-07-10 02:38:00,
2013-07-09 22:43:00,76.3,73.8,29.88,West,265,0.0,0.0,92,0.00,,---,0.27,VWS V14.00,2013-07-10 02:43:00,
2013-07-09 22:48:00,76.2,73.7,29.88,West,265,0.0,0.0,92,0.00,,---,0.27,VWS V14.00,2013-07-10 02:48:00,
2013-07-09 22:53:00,76.1,73.6,29.88,West,265,0.0,0.0,92,0.00,,---,0.27,VWS V14.00,2013-07-10 02:53:00,
2013-07-09 22:58:00,76.1,73.6,29.88,West,265,0.0,1.0,92,0.00,,---,0.27,VWS V14.00,2013-07-10 02:58:00,
2013-07-09 23:04:00,76.0,73.5,29.88,West,265,0.0,2.0,92,0.00,,---,0.27,VWS V14.00,2013-07-10 03:04:00,
2013-07-09 23:09:00,76.0,73.5,29.88,West,265,0.0,2.0,92,0.00,,---,0.27,VWS V14.00,2013-07-10 03:09:00,
2013-07-09 23:14:00,76.0,73.5,29.88,West,265,0.0,2.0,92,0.00,,---,0.27,VWS V14.00,2013-07-10 03:14:00,
2013-07-09 23:19:00,76.1,73.6,29.88,West,265,0.0,2.0,92,0.00,,---,0.27,VWS V14.00,2013-07-10 03:19:00,
2013-07-09 23:24:00,76.0,73.5,29.87,West,265,0.0,2.0,92,0.00,,---,0.27,VWS V14.00,2013-07-10 03:24:00,
2013-07-09 23:29:00,76.1,73.6,29.87,West,265,0.0,2.0,92,0.00,,---,0.27,VWS V14.00,2013-07-10 03:29:00,
2013-07-09 23:34:00,76.0,73.5,29.87,West,265,0.0,1.0,92,0.00,,---,0.27,VWS V14.00,2013-07-10 03:34:00,
2013-07-09 23:39:00,76.0,73.5,29.87,West,265,0.0,1.0,92,0.00,,---,0.27,VWS V14.00,2013-07-10 03:39:00,
2013-07-09 23:44:00,76.0,73.5,29.87,West,265,0.0,1.0,92,0.00,,---,0.27,VWS V14.00,2013-07-10 03:44:00,
2013-07-09 23:49:00,76.1,73.6,29.87,West,265,0.0,2.0,92,0.00,,---,0.27,VWS V14.00,2013-07-10 03:49:00,
2013-07-09 23:54:00,76.1,73.6,29.87,West,263,0.0,3.0,92,0.00,,---,0.27,VWS V14.00,2013-07-10 03:54:00,
2013-07-09 23:59:00,76.2,73.7,29.87,West,263,0.0,3.0,92,0.00,,---,0.27,VWS V14.00,2013-07-10 03:59:00,